Home   Weather   Pueblo   Past weeks

Flag for USA Past Weather in Pueblo, Colorado, USA — Yesterday and Last 2 Weeks

Now
59 °F

Clear.


Feels Like: 58 °F
Forecast: 58 / 90 °F
Wind: 7 mph from West

Location: Pueblo Memorial Airport

Current Time: Aug 18, 2017 at 5:07:30 am

Latest Report: Aug 18, 2017 at 3:53 am


Visibility: 10 mi

Pressure: 29.92 "Hg (25.26 "Hg at 1430m altitude)

Humidity: 64%

Dew Point: 47 °F

Location of PuebloLocation

Past Weather in Pueblo — Graph

°F

Pueblo Temperature Yesterday

Maximum temperature yesterday: 91 °F (at 2:53 pm)
Minimum temperature yesterday: 60 °F (at 6:53 am)
Average temperature yesterday: 75 °F

High & Low Weather Summary for the Past Weeks

 TemperatureHumidityPressure
High93 °F (Aug 14, 2:53 pm)96% (Aug 7, 10:02 am)30.33 "Hg (Aug 7, 10:02 am)
Low57 °F (Aug 9, 5:53 am)16% (Aug 17, 4:27 pm)29.58 "Hg (Aug 15, 3:53 pm)
Average70 °F64%29.98 "Hg
* Reported Aug 3 3:53 am — Aug 18 3:53 am, Pueblo. Weather by CustomWeather, © 2017

Note: Actual official high and low records may vary slightly from our data, if they occured in-between our weather recording intervals... More about our weather records

Advertising

Pueblo Weather History for the Previous 24 Hours

Scroll right to see more
 ConditionsComfort  
Time TempWeatherWind HumidityBarometerVisibility
3:53 am
Fri, Aug 18
59 °FClear.7 mph64%29.92 "Hg10 mi
2:53 am60 °FClear.10 mph65%29.92 "Hg10 mi
1:53 am61 °FClear.3 mph65%29.93 "Hg10 mi
12:53 am61 °FClear.6 mph65%29.95 "Hg10 mi
11:53 pm
Thu, Aug 17
63 °FClear.3 mph58%29.96 "Hg10 mi
10:53 pm67 °FClear.5 mph53%29.95 "Hg10 mi
9:53 pm68 °FClear.6 mph49%29.95 "Hg10 mi
8:53 pm76 °FPassing clouds.7 mph36%29.92 "Hg10 mi
7:53 pm78 °FClear.3 mph32%29.93 "Hg10 mi
6:53 pm83 °FSunny.12 mph26%29.89 "Hg10 mi
5:53 pm84 °FSunny.14 mph26%29.87 "Hg10 mi
5:10 pm88 °FSunny.17 mph22%30.06 "Hg10 mi
4:53 pm91 °FThundershowers. Sunny.15 mph16%29.85 "Hg10 mi
4:27 pm89 °FSunny.6 mph16%30.05 "Hg10 mi
3:53 pm87 °FThundershowers. Scattered clouds.15 mph20%29.86 "Hg10 mi
2:53 pm91 °FSunny.12 mph19%29.85 "Hg10 mi
1:53 pm88 °FSunny.N/A21%29.88 "Hg10 mi
12:53 pm85 °FSunny.5 mph29%29.92 "Hg10 mi
11:53 am82 °FSunny.10 mph37%29.94 "Hg10 mi
10:53 am79 °FSunny.5 mph38%29.96 "Hg10 mi
9:53 am76 °FSunny.6 mph42%29.99 "Hg10 mi
8:53 am71 °FSunny.5 mph49%30.00 "Hg10 mi
7:53 am66 °FSunny.No wind65%30.01 "Hg10 mi
6:53 am60 °FSunny.No wind78%30.01 "Hg10 mi
5:53 am61 °FClear.No wind78%30.00 "Hg10 mi
Weather by CustomWeather, © 2017

See weather overviewHow to use our weather pages